Stations météo

Publicité
Tarbes/Ossun, France (7621): Température de l'air & dewpoint: 15.10.2017 10:00:00 - 21.10.2017 10:00:00 (CEST)Tarbes/Ossun, France (7621): Température de l'air 5cm: 15.10.2017 10:00:00 - 21.10.2017 10:00:00 (CEST)Tarbes/Ossun, France (7621): Température de l'air -20cm & Température de l'air -100cm: 15.10.2017 10:00:00 - 21.10.2017 10:00:00 (CEST)Tarbes/Ossun, France (7621): Vitesse du vent & gusts: 15.10.2017 10:00:00 - 21.10.2017 10:00:00 (CEST)Tarbes/Ossun, France (7621): Direction du vent: 15.10.2017 10:00:00 - 21.10.2017 10:00:00 (CEST)Tarbes/Ossun, France (7621): reduced air pressure: 15.10.2017 10:00:00 - 21.10.2017 10:00:00 (CEST)Tarbes/Ossun, France (7621): visibility: 15.10.2017 10:00:00 - 21.10.2017 10:00:00 (CEST)Tarbes/Ossun, France (7621): Ensoleillement: 15.10.2017 10:00:00 - 21.10.2017 10:00:00 (CEST)Tarbes/Ossun, France (7621): Quantités de précipitations: 15.10.2017 10:00:00 - 21.10.2017 10:00:00 (CEST)
Date & Time tt [°C] td [°C] tt 5cm [°C] tt -20cm [°C] tt -100cm [°C] ff [km/h] ff [knt] fx [km/h] fx [knt] dd ppp [hPa] vv [km] sd [min] rr [mm]
21.10.2017 10:00:00 15,1 13,8 14,0 14,8 16,1 9 5 26 14 SSW 1023,0 9 0 0,2
21.10.2017 09:00:00 15,5 13,0 13,6 14,8 16,1 16 9 35 19 WSW 1022,4 10 0 0,0
21.10.2017 08:00:00 15,4 12,9 - - - 22 12 55 30 W 1021,7 10 - -
21.10.2017 07:00:00 12,5 6,7 9,0 15,0 16,1 16 9 27 15 S 1020,1 60 0 0,0
21.10.2017 06:00:00 11,9 6,2 8,5 15,1 16,1 16 9 23 12 S 1019,4 60 0 0,0
21.10.2017 05:00:00 11,1 6,6 7,9 15,1 16,1 15 8 21 11 SSE 1018,7 10 0 0,0
21.10.2017 04:00:00 10,3 7,0 7,7 15,2 16,1 14 7 19 11 S 1018,4 60 0 0,0
21.10.2017 03:00:00 10,4 7,3 7,3 15,3 16,1 15 8 21 12 S 1018,2 10 0 0,0
21.10.2017 02:00:00 9,7 8,5 6,4 15,4 16,1 11 6 15 8 S 1018,3 10 0 0,0
21.10.2017 01:00:00 8,2 6,7 6,5 15,4 16,1 8 4 11 6 S 1018,7 10 0 0,0
21.10.2017 00:00:00 9,0 7,6 6,3 15,5 16,1 8 4 10 6 S 1018,7 10 0 0,0
20.10.2017 23:00:00 11,1 9,8 6,6 15,5 16,1 8 4 16 9 SE 1018,7 10 0 0,0
20.10.2017 22:00:00 11,6 10,2 8,2 15,5 16,1 10 5 14 8 SSE 1018,7 57 0 0,0
20.10.2017 21:00:00 10,9 9,3 - - - 5 3 9 5 S 1018,8 10 - 0,0
20.10.2017 20:00:00 12,8 10,7 9,9 15,5 16,1 9 5 10 6 SSW 1018,5 59 0 0,0
20.10.2017 19:00:00 18,3 10,9 12,9 15,3 16,1 5 3 11 6 ENE 1017,2 60 42 0,0
20.10.2017 18:00:00 19,7 10,9 16,7 15,2 16,1 6 3 18 10 ENE 1016,9 60 60 0,0
20.10.2017 17:00:00 20,6 11,0 21,0 15,1 16,1 6 3 17 9 ESE 1016,8 54 49 0,0
20.10.2017 16:00:00 19,4 9,8 19,6 15,1 16,1 8 4 15 8 E 1017,0 10 0 0,0
20.10.2017 15:00:00 19,6 8,3 21,2 15,0 16,1 5 3 12 6 - 1017,3 10 6 0,0
20.10.2017 14:00:00 20,2 8,5 21,8 14,9 16,1 5 3 16 9 E 1017,3 10 23 0,0
20.10.2017 13:00:00 19,0 9,2 19,1 14,9 16,1 4 2 16 9 W 1018,1 60 20 0,0
20.10.2017 12:00:00 16,9 10,3 14,7 14,9 16,1 8 4 16 9 SE 1018,3 10 2 0,0
20.10.2017 11:00:00 13,9 9,7 12,5 15,0 16,2 5 3 16 9 S 1018,6 60 0 0,0
20.10.2017 10:00:00 12,9 9,0 10,5 15,0 16,1 11 6 16 9 S 1018,1 60 11 0,0
20.10.2017 09:00:00 11,2 8,2 9,9 15,1 16,1 11 6 18 10 S 1017,8 10 0 0,0
20.10.2017 08:00:00 11,4 8,1 9,8 15,2 16,2 13 7 18 10 S 1017,1 60 0 0,0
20.10.2017 07:00:00 11,5 8,4 8,6 15,3 16,1 13 7 21 11 S 1017,0 60 0 0,0
20.10.2017 06:00:00 10,9 7,9 8,1 15,3 16,2 11 6 17 9 SSE 1016,4 60 0 0,0
20.10.2017 05:00:00 11,3 8,5 8,9 15,4 16,2 11 6 17 9 S 1016,0 10 0 0,0
20.10.2017 04:00:00 10,8 8,9 - - - 9 5 16 9 SSE 1015,8 10 - 0,0
20.10.2017 03:00:00 10,1 8,7 7,9 15,5 16,2 9 5 18 10 S 1015,7 10 0 0,0
20.10.2017 02:00:00 10,0 8,3 8,2 15,6 16,2 6 3 25 13 S 1015,3 60 0 0,0
20.10.2017 01:00:00 11,5 10,1 9,9 15,7 16,2 11 6 16 8 SSE 1014,7 60 0 0,0
20.10.2017 00:00:00 10,9 10,0 8,1 15,7 16,2 10 5 13 7 SSE 1014,7 58 0 0,0
19.10.2017 23:00:00 10,1 9,6 6,8 15,8 16,2 8 4 14 7 SSE 1014,3 48 0 0,0
19.10.2017 22:00:00 10,2 9,3 7,0 15,8 16,2 3 1 10 6 WSW 1013,5 2,0 0 0,0
19.10.2017 21:00:00 10,8 9,6 7,9 15,8 16,2 5 3 9 5 SSE 1013,1 48 0 0,0
19.10.2017 20:00:00 12,7 9,7 9,4 15,8 16,2 6 3 9 5 SSW 1013,1 50 0 0,0
19.10.2017 19:00:00 15,9 11,5 12,1 15,7 16,1 5 3 11 6 E 1012,4 60 39 0,0
19.10.2017 18:00:00 16,6 12,3 14,8 15,6 16,1 8 4 16 9 E 1011,2 53 32 0,0
19.10.2017 17:00:00 17,0 12,1 17,1 15,6 16,2 6 4 16 8 E 1010,9 49 34 0,0
19.10.2017 16:00:00 18,0 12,0 16,9 15,6 16,2 5 3 11 6 - 1011,0 10 22 0,0
19.10.2017 15:00:00 15,7 12,3 16,6 15,5 16,2 8 4 16 9 N 1011,4 10 0 0,0
19.10.2017 14:00:00 15,3 12,1 17,3 15,5 16,1 9 5 18 10 NW 1011,6 10 0 0,0
19.10.2017 13:00:00 15,2 12,1 16,2 15,5 16,2 11 6 20 11 WNW 1012,1 10 11 0,0
19.10.2017 12:00:00 14,0 12,0 - - - 5 3 24 13 - 1012,4 10 - 0,0
19.10.2017 11:00:00 13,9 11,8 13,8 15,5 16,1 5 3 13 7 SW 1012,2 10 0 0,0
19.10.2017 10:00:00 13,1 11,8 13,1 15,6 16,2 8 4 12 6 SSW 1012,1 10 0 0,0
19.10.2017 09:00:00 12,7 11,8 12,8 15,6 16,2 5 3 10 5 S 1011,4 10 0 0,0
19.10.2017 08:00:00 12,6 11,3 12,7 15,6 16,2 5 3 8 5 SSW 1011,2 10 0 0,0
19.10.2017 07:00:00 12,6 11,7 12,4 15,7 16,2 8 4 13 7 S 1011,1 35 0 0,0
19.10.2017 06:00:00 12,5 11,6 12,5 15,7 16,2 8 4 11 6 SSW 1010,8 35 0 0,0
19.10.2017 05:00:00 12,5 11,2 - - - 8 4 9 5 S 1010,7 10 - -
19.10.2017 04:00:00 12,3 11,4 12,0 15,8 16,2 5 3 10 5 S 1011,1 10 0 0,0
19.10.2017 03:00:00 12,5 11,2 - - - 4 2 5 3 S 1011,3 10 - 0,0
19.10.2017 02:00:00 12,5 10,6 11,9 15,9 16,2 0 0 10 5 N 1011,2 10 0 0,0
19.10.2017 01:00:00 12,5 10,9 - - - 4 2 9 5 - 1010,6 10 - 0,0
19.10.2017 00:00:00 12,6 10,8 - - - 5 3 15 8 SW 1010,6 10 - 0,0
18.10.2017 23:00:00 12,7 11,1 12,7 16,0 16,2 7 4 15 8 SW 1010,4 57 0 0,0
18.10.2017 22:00:00 12,6 10,8 - - - 5 3 24 13 WSW 1010,3 10 - 0,0
18.10.2017 21:00:00 12,9 11,5 12,7 16,0 16,2 13 7 37 20 W 1010,0 33 0 0,4
18.10.2017 20:00:00 13,0 11,4 12,7 16,1 16,2 10 5 19 11 SSW 1009,8 18 0 3,0
18.10.2017 19:00:00 13,8 11,3 13,3 16,1 16,2 8 4 26 14 SW 1009,0 19 0 0,6
18.10.2017 18:00:00 15,2 11,0 13,7 16,1 16,2 16 9 29 16 S 1008,1 10 0 0,2
18.10.2017 17:00:00 15,0 13,0 14,4 16,0 16,2 4 2 22 12 - 1008,9 10 0 1,3
18.10.2017 16:00:00 15,0 12,7 14,1 16,0 16,2 13 7 41 22 SE 1009,4 10 0 2,4
18.10.2017 15:00:00 16,2 12,6 14,8 16,0 16,2 34 18 50 27 S 1010,8 10 0 0,6
18.10.2017 14:00:00 16,5 14,1 15,7 16,0 16,2 8 4 16 9 S 1009,3 10 0 2,0
18.10.2017 13:00:00 17,6 14,1 17,3 16,0 16,2 2 1 12 6 - 1010,1 10 0 0,2
18.10.2017 12:00:00 18,5 12,0 17,4 16,0 16,1 4 2 15 8 - 1010,1 10 19 0,0
18.10.2017 11:00:00 17,7 11,9 15,4 16,0 16,2 9 5 15 8 N 1010,6 20 49 0,0
18.10.2017 10:00:00 16,7 10,8 13,2 16,1 16,2 5 3 14 7 S 1011,5 10 11 0,0
18.10.2017 09:00:00 14,5 10,9 11,6 16,1 16,2 8 4 10 5 SSW 1012,3 20 0 0,0
18.10.2017 08:00:00 14,7 10,1 12,5 16,2 16,2 7 4 10 6 SSE 1012,1 43 0 0,0
18.10.2017 07:00:00 14,3 10,5 11,9 16,2 16,2 6 4 13 7 SSE 1012,5 47 0 0,0
18.10.2017 06:00:00 14,1 10,3 12,4 16,2 16,2 8 4 14 8 SSE 1012,9 10 0 0,0
18.10.2017 05:00:00 14,1 10,9 12,5 16,3 16,2 4 2 14 8 W 1013,4 46 0 0,0
18.10.2017 04:00:00 15,2 9,3 13,2 16,3 16,2 5 3 13 7 SE 1013,8 44 0 0,0
18.10.2017 03:00:00 14,6 10,8 13,0 16,3 16,2 6 3 13 7 SW 1014,2 54 0 0,0
18.10.2017 02:00:00 14,7 10,3 12,6 16,4 16,2 3 2 10 5 S 1014,4 50 0 0,0
18.10.2017 01:00:00 15,1 9,7 12,7 16,4 16,2 4 2 11 6 SE 1014,6 47 0 0,0
18.10.2017 00:00:00 15,1 10,9 - - - 4 2 9 5 - 1015,2 10 - 0,0
17.10.2017 23:00:00 14,9 9,7 12,7 16,5 16,2 5 3 11 6 - 1015,4 10 0 0,0
17.10.2017 22:00:00 14,3 10,5 10,0 16,5 16,2 5 3 16 9 S 1015,5 10 0 0,0
17.10.2017 21:00:00 13,0 9,6 9,5 16,4 16,2 5 3 11 6 SSE 1015,5 10 0 0,0
17.10.2017 20:00:00 14,4 9,0 10,5 16,4 16,2 8 4 16 9 S 1015,5 10 0 0,0
17.10.2017 19:00:00 21,3 8,9 12,6 16,2 16,1 5 3 12 7 NE 1014,5 10 24 0,0
17.10.2017 18:00:00 24,4 7,9 18,3 16,1 16,2 8 4 23 13 E 1014,2 10 49 0,0
17.10.2017 17:00:00 25,6 8,1 24,9 15,9 16,2 11 6 27 15 ESE 1014,3 10 60 0,0
17.10.2017 16:00:00 26,4 9,7 28,7 15,8 16,2 11 6 22 12 NE 1014,5 10 60 0,0
17.10.2017 15:00:00 26,5 7,0 30,8 15,7 16,2 11 6 23 13 ENE 1015,0 10 60 0,0
17.10.2017 14:00:00 25,2 9,1 28,2 15,7 16,2 12 6 22 12 NNE 1016,0 30 60 0,0
17.10.2017 13:00:00 24,3 11,9 23,5 15,7 16,2 9 5 14 8 NNE 1016,9 10 60 0,0
17.10.2017 12:00:00 21,9 11,3 17,9 15,7 16,2 8 4 12 6 NNE 1017,6 10 60 0,0
17.10.2017 11:00:00 17,5 12,2 12,9 15,8 16,2 5 3 9 5 NNW 1018,7 10 60 0,0
17.10.2017 10:00:00 13,4 11,8 6,9 15,9 16,2 0 0 6 4 N 1019,5 10 60 0,0
17.10.2017 09:00:00 9,3 8,8 4,4 16,1 16,2 5 3 7 4 S 1020,2 13 23 0,0
17.10.2017 08:00:00 8,4 7,6 4,4 16,2 16,2 5 3 9 5 S 1020,4 7 0 0,0
17.10.2017 07:00:00 8,8 7,9 5,9 16,2 16,2 4 2 11 6 - 1020,4 10 0 0,0
17.10.2017 06:00:00 9,8 9,2 6,8 16,3 16,2 4 2 10 6 SSE 1020,8 8 0 0,0
17.10.2017 05:00:00 9,8 8,9 7,2 16,4 16,2 6 3 8 4 SSW 1021,2 12 0 0,0
17.10.2017 04:00:00 11,4 10,5 7,4 16,5 16,2 4 2 8 4 - 1021,8 10 0 0,0
17.10.2017 03:00:00 11,9 10,8 8,6 16,6 16,2 4 2 9 5 S 1022,5 13 0 0,0
17.10.2017 02:00:00 11,9 10,6 9,7 16,6 16,2 5 3 10 6 S 1023,1 12 0 0,0
17.10.2017 01:00:00 12,8 11,2 10,4 16,7 16,2 5 3 10 6 S 1023,3 10 0 0,0
17.10.2017 00:00:00 13,8 12,2 10,5 16,7 16,2 5 3 10 6 SSE 1023,7 17 0 0,0
16.10.2017 23:00:00 15,7 12,8 11,7 16,7 16,2 8 4 11 6 SSE 1023,7 20 0 0,0
16.10.2017 22:00:00 16,6 13,7 12,4 16,7 16,2 7 4 17 9 SSW 1023,5 11 0 0,0
16.10.2017 21:00:00 16,4 13,1 13,2 16,6 16,2 8 4 13 7 S 1023,3 27 0 0,0
16.10.2017 20:00:00 17,4 13,7 14,0 16,5 16,2 6 3 9 5 SSW 1023,0 39 0 0,0
16.10.2017 19:00:00 23,1 13,6 17,5 16,4 16,2 9 5 22 12 NNE 1021,5 48 38 0,0
16.10.2017 18:00:00 26,1 13,6 21,0 16,2 16,2 13 7 18 10 N 1020,4 10 60 0,0
16.10.2017 17:00:00 27,7 13,2 25,5 16,0 16,2 13 7 22 12 NNE 1020,0 10 60 0,0
16.10.2017 16:00:00 28,9 11,9 30,7 15,9 16,2 9 5 22 12 ENE 1019,9 46 60 0,0
16.10.2017 15:00:00 28,2 12,9 32,0 15,7 16,2 11 6 21 12 NNE 1020,0 10 60 0,0
16.10.2017 14:00:00 27,8 13,0 29,2 15,7 16,2 9 5 20 11 NNE 1020,5 10 60 0,0
16.10.2017 13:00:00 27,1 12,3 25,4 15,7 16,2 11 6 16 9 N 1020,9 10 60 0,0
16.10.2017 12:00:00 24,7 12,9 19,6 15,7 16,2 8 5 12 6 N 1021,2 43 60 0,0
16.10.2017 11:00:00 20,4 13,8 15,4 15,7 16,2 6 3 8 4 NNW 1021,7 49 60 0,0
16.10.2017 10:00:00 16,4 13,1 8,9 15,9 16,2 4 2 8 4 - 1022,1 10 60 0,0
16.10.2017 09:00:00 11,4 8,6 7,1 16,0 16,2 4 2 11 6 - 1022,3 8 24 0,0
16.10.2017 08:00:00 9,9 7,8 6,7 16,1 16,2 5 3 12 6 SSW 1022,2 38 0 0,0
16.10.2017 07:00:00 10,3 9,5 6,8 16,2 16,2 8 4 12 7 S 1021,9 20 0 0,0
16.10.2017 06:00:00 10,4 9,8 7,5 16,3 16,2 6 3 10 5 S 1021,6 12 0 0,0
16.10.2017 05:00:00 10,3 9,5 7,4 16,3 16,2 5 3 14 8 SSW 1021,8 8 0 0,0
16.10.2017 04:00:00 10,1 9,0 8,0 16,4 16,2 4 2 9 5 - 1022,1 10 0 0,0
16.10.2017 03:00:00 10,6 8,9 8,1 16,5 16,2 4 2 10 5 S 1022,6 31 0 0,0
16.10.2017 02:00:00 11,4 9,8 - - - 4 2 8 4 - 1022,5 10 - -
16.10.2017 01:00:00 11,5 10,4 9,3 16,6 16,2 5 3 8 4 SW 1022,8 25 0 0,0
16.10.2017 00:00:00 12,9 11,1 9,5 16,7 16,2 0 0 5 3 N 1022,8 10 0 0,0
15.10.2017 23:00:00 13,8 12,0 10,0 16,7 16,2 4 2 7 4 SE 1022,7 10 0 0,0
15.10.2017 22:00:00 14,3 12,5 11,1 16,6 16,2 5 3 9 5 S 1022,9 37 0 0,0
15.10.2017 21:00:00 16,3 13,6 12,1 16,6 16,2 5 3 14 7 - 1022,4 10 0 0,0
15.10.2017 20:00:00 20,5 13,2 13,5 16,5 16,2 3 1 12 7 NE 1021,8 52 0 0,0
15.10.2017 19:00:00 23,7 13,8 16,9 16,3 16,2 8 4 15 8 NE 1021,2 10 34 0,0
15.10.2017 18:00:00 26,3 14,1 21,1 16,1 16,2 8 4 20 11 NE 1020,5 10 60 0,0
15.10.2017 17:00:00 27,6 12,0 26,1 15,9 16,2 11 6 19 11 NNE 1020,4 10 60 0,0
15.10.2017 16:00:00 28,3 10,9 30,5 15,8 16,2 9 5 24 13 ENE 1020,6 10 60 0,0
15.10.2017 15:00:00 28,5 11,5 31,9 15,6 16,2 9 5 21 12 ENE 1020,6 46 60 0,0
15.10.2017 14:00:00 28,2 11,7 31,6 15,5 16,2 13 7 23 12 NNE 1021,1 10 60 0,0
15.10.2017 13:00:00 27,8 10,9 27,3 15,5 16,2 8 4 17 9 E 1021,7 20 60 0,0
15.10.2017 12:00:00 25,8 12,3 22,1 15,5 16,2 6 3 10 6 ENE 1022,2 53 60 0,0
15.10.2017 11:00:00 23,8 11,5 15,4 15,5 16,2 5 3 14 7 - 1022,7 10 60 0,0
15.10.2017 10:00:00 18,3 10,6 9,8 15,6 16,2 10 6 16 9 SE 1023,4 60 60 0,0

tt = Température de l'air
td = dewpoint
tt 5cm = Température de l'air 5cm
tt -20cm = Température de l'air -20cm
tt -100cm = Température de l'air -100cm
ff = Vitesse du vent
fx = gusts
dd = Direction du vent
ppp = reduced air pressure
vv = visibility
sd = Ensoleillement
rr = Quantités de précipitations

stations d'obs. à proximité